Regional Weather Roundup
Issued by NWS

Home | Current Version | Previous Version | Text Only | Print | Product List | Glossary On
Versions: 1 2 3 4 5 6 7 8 9 10 11 12 13 14 15 16 17 18 19 20 21 22 23 24 25 26 27
000
ASUS42 KKEY 301810
RWRKEY

FLORIDA REGIONAL WEATHER ROUNDUP FOR THE FLORIDA KEYS
NATIONAL WEATHER SERVICE KEY WEST FLORIDA
200 PM EDT FRI SEP 30 2016

...SOUTH FLORIDA AND THE KEYS...

CITY           SKY/WX    TMP DP  RH WIND       PRES   REMARKS
FORT MYERS     MOSUNNY   89  73  59 SW10      30.01F HX  97
SW REGIONAL AP PTSUNNY   88  73  61 W9        30.01F HX  95
NAPLES         CLOUDY    88  77  69 SW10      30.02F HX 100
MIAMI          PTSUNNY   88  73  61 VRB6      30.02F HX  95
WEST KENDALL   CLOUDY    89  74  60 SE9G20    30.01F HX  98
HOMESTEAD      SUNNY     90  75  61 E9        30.01F HX  99
MARATHON       MOSUNNY   91  78  65 SE5       30.01F HX 106
BOCA CHICA NAS MOSUNNY   89  75  63 SE8       30.01F HX  99
KEY WEST INTL  SUNNY     89  78  70 SE6       30.01F HX 103

...INTERNATIONAL WEATHER...

CITY           SKY/WX    TMP DP  RH WIND       PRES   REMARKS
NASSAU BAHAMAS PTSUNNY   90  77  66 E6        30.04F THUNDER HX 102
CANCUN MEXICO  MOSUNNY   90  72  55 NE5       29.99F HX  96
COZUMEL MEXICO MOSUNNY   86  77  74 NW12      29.98F HX  97

ADJACENT COASTAL WATERS...

STATION/POSITION TIME  SKY/WX   TEMP    WIND        PRES    WAVE
                                AIR SEA DIR/SP/G            HT/PER
                 (UTC)          (F)     (DEG/KT/KT) (MB)    (FT/S)
PULASKI SHOAL LI NOT AVBL
SAND KEY         NOT AVBL
LONG KEY         NOT AVBL
FOWEY ROCKS      NOT AVBL

$$




USA.gov is the U.S. government's official web portal to all federal, state and local government web resources and services.